Hourly Data Report for October 03, 2016

CORAL HARBOUR A
NUNAVUT

64°11'36.000" N
83°21'34.000" W
62.20 m
2301002
71915
YZS

Download Data

Hourly Data (October 2016)
Hourly Data Report for October 3, 2016
TIME
LST
Temp Definition
°C
Dew Point Definition
°C
Rel Hum Definition
%
Precip. Amount Definition
mm

Wind Dir Definition
10's deg

Wind Spd Definition
km/h
Visibility Definition
km
Stn Press Definition
kPa
Hmdx Definition


Wind Chill Definition


Weather Definition


00:00 -4.5 -5.8 91   33 12 24.1 101.28   -9 LegendNANA
01:00 -3.9 -5.6 88   32 5 24.1 101.22   -6 Mainly Clear
02:00 -4.0 -5.6 89   33 8 24.1 101.17   -7 LegendNANA
03:00 -3.3 -4.7 90   32 4 24.1 101.11   -5 LegendNANA
04:00 -3.0 -4.3 91   26 5 24.1 101.05   -5 Mostly Cloudy
05:00 -2.9 -4.9 86   36 2 24.1 100.96   -4 LegendNANA
06:00 -2.6 -3.9 91   36 2 24.1 100.88   -3 LegendNANA
07:00 -2.0 -3.0 93   11 8 24.1 100.71   -5 Cloudy
08:00 -1.9 -2.5 96   10 18 12.9 100.57   -7 Snow
09:00 -1.4 -1.8 97   11 20 3.2 100.44   -7 Snow
10:00 0.0 -0.3 98   15 20 3.2 100.28   -5 Snow
11:00 0.1 0.0 99   15 22 2.4 100.13     Snow
12:00 0.0 -0.3 98   14 23 1.2 99.97   -6 Snow
13:00 0.2 -0.1 98   15 27 0.8 99.81     Moderate Snow
14:00 0.4 0.1 98   14 28 2.4 99.59     Snow
15:00 0.9 0.6 98   15 33 1.2 99.40     Snow
16:00 1.7 1.6 99   16 30 1.2 99.22     Snow
17:00 1.8 1.7 99   17 27 1.2 99.08     Snow
18:00 2.0 1.9 99   17 28 0.4 98.93     Drizzle,Moderate Snow
19:00 2.0 1.9 99   17 22 0.4 98.76     Drizzle,Moderate Snow
20:00 2.0 1.9 99   18 19 0.4 98.62     Drizzle,Moderate Snow
21:00 2.1 2.0 99   21 23 0.4 98.51     Drizzle,Fog
22:00 1.6 1.5 99   24 19 0.4 98.43     Drizzle,Fog
23:00 1.0 0.9 99   24 22 1.6 98.36     Fog

Notes on Data Quality.

Legend

  • E = Estimated
  • M = Missing
  • NA = Not Available*
  • [empty] = Indicates an unobserved value
Date modified: